EHI
0 0 0 0 0 0 0 0 0 0 0 0 0 0 0 0 0 0 0 0 0 0 0 0 0 0 0 0 0 0 0 0 0 0 0 0 0 0
0 0 0 0 0 0 0 0 0 0 0 0 0 0 0 0 0 0 0 0 0 0 0 0 0 0 0 0 0 0 0 0 0 0 0 0 0 0
0 0 0 0 0 0 0 0 0 0 0 0 0 0 0 0 0 0 0 0 0 0 0 0 0 0 0 0 0 0 0 0 0 0 0 0 0 0
0 0 0 0 0 0 0 0 0 0 0 0 0 0 0 0 0 0 0 0 0 0 0 0 0 0 0 0 0 0 0 0 0 0 0 0 0 0
0 0 0 0 0 0 0 0 0 0 0 0 0 0 0 0 0 0 0 0 0 0 0 0 0 0 0 0 0 0 0 0 0 0 0 0 0 0
0 0 0 0 0 0 0 0 0 0 0 0 0 0 0 0 0 0 0 0 0 0 0 0 0 0 0 0 0 0 0 0 0 0 0 0 0 0
0 0 0 0 0 0 0 0 0 0 0 0 0 0 0 0 0 0 0 0 0 0 0 0 0 0 0 0 0 0 0 0 0 0 0 0 0 0
0 0 0 0 0 0 0 0 0 0 0 0 0 0 0 0 0 0 0 0 0 0 0 0 0 0 0 0 0 0 0 0 0 0 0 0 0 0
0 0 0 0 0 0 0 0 0 0 0 0 0 0 0 0 0 0 0 0 0 0 0 0 0 0 0 0 0 0 0 0 0 0 0 0 0 0
0 0 0 0 0 0 0 0 0 0 0 0 0 0 0 0 0 0 0 0 0 0 0 0 0 0 0 0 0 0 0 0 0 0 0 0 0 0
0 0 0 0 0 0 0 0 0 0 0 0 0 0 0 0 0 0 0 0 0 0 0 0 0 0 0 0 0 0 0 0 0 0 0 0 0 0
0 0 0 0 0 0 0 0 0 0 0 0 0 0 0 0 0 0 0 0 0 0 0 0 0 0 0 0 0 0 0 0 0 0 0 0 0 0
0 0 0 0 0 0 0 0 0 0 0 0 0 0 0 0 0 0 0 0 0 0 0 0 0 0 0 0 0 0 0 0 0 0 0 0 0 0
0 0 0 0 0 0 0 0 0 0 0 0 0 0 0 0 0 0 0 0 0 0 0 0 0 0 0 0 0 0 0 0 0 0 0 0 0 0
0 0 0 0 0 0 0 0 0 0 0 0 0 0 0 0 0 0 0 0 0 0 0 0 0 0 0 0 0 0 0 0 0 0 0 0 0 0
0 0 0 0 0 0 0 0 0 0 0 0 0 0 0 0 0 0 0 0 0 0 0 0 0 0 0 0 0 0 0 0 0 0 0 0 0 0
0 0 0 0 0 0 0 0 0 0 0 0 0 0 0 0 0 0 0 0 0 0 0 0 0 0 0 0 0 0 0 0 0 0 0 0 0 0
0 0 0 0 0 0 0 0 0 0 0 0 0 0 0 0 0 0 0 0 0 0 0 0 0 0 0 0 0 0 0 0 0 0 0 0 0 0
0 0 0 0 0 0 0 0 0 0 0 0 0 0 0 0 0 0 0 0 0 0 0 0 0 0 0 0 0 0 0 0 0 0 0 0 0 0
0 0 0 0 0 0 0 0 0 0 0 0 0 0 0 0 0 0 0 0 0 0 0 0 0 0 0 0 0 0 0 0 0 0 0 0 0 0
0 0 0 0 0 0 0 0 0 0 0 0 0 0 0 0 0 0 0 0 0 0 0 0 0 0 0 0 0 0 0 0 0 0 0 0 0 0
0 0 0 0 0 0 0 0 0 0 0 0 0 0 0 0 0 0 0 0 0 0 0 0 0 0 0 0 0 0 0 0 0 0 0 0 0 0
0 0 0 0 0 0 0 0 0 0 0 0 0 0 0 0 0 0 0 0 0 0 0 0 0 0 0 0 0 0 0 0 0 0 0 0 0 0
Wind_Speed
4 4 3 2 2 2 3 4 4 4 2 1 1 0 1 1 1 1 1 1 1 2 2 3 3 3 3 4 4 4 4 5 6 6 7 7 7 8
4 5 5 3 3 3 3 2 2 3 3 1 0 1 1 1 1 1 0 0 1 1 2 3 3 2 2 2 2 2 3 3 4 5 6 6 7 7
5 6 6 4 4 3 3 3 3 3 4 2 1 1 2 1 1 1 0 0 1 2 3 4 4 3 3 2 1 1 1 2 3 4 4 5 6 7
6 6 6 4 5 4 4 4 3 3 4 4 2 2 2 1 1 1 1 1 0 2 3 4 4 4 4 3 2 2 1 1 1 2 3 4 5 6
5 6 5 5 6 4 5 4 3 4 4 5 3 2 2 2 1 1 2 1 1 1 1 2 3 3 3 3 3 3 2 1 1 1 2 2 3 5
6 6 5 5 5 5 5 5 5 5 5 5 3 2 2 2 2 2 2 2 1 2 2 1 1 1 2 3 3 3 3 3 3 2 2 2 2 3
7 7 6 7 7 5 4 4 5 4 4 4 3 2 2 1 2 1 1 1 1 1 1 1 1 0 1 2 3 3 4 4 4 3 3 3 3 2
6 6 6 8 9 10 9 7 5 5 4 3 2 2 1 0 1 1 1 1 1 1 1 1 1 1 1 2 2 4 4 4 4 4 4 4 4 4
6 5 5 6 7 6 8 9 8 6 4 3 3 2 1 1 1 1 1 0 0 1 1 1 1 1 1 2 4 4 4 4 4 4 5 5 5 5
6 5 5 5 5 5 6 6 6 5 3 2 2 1 1 1 2 1 1 0 1 1 1 1 1 1 2 2 3 4 4 4 5 5 5 5 5 5
5 5 5 5 6 6 6 5 5 4 4 3 1 1 2 3 3 2 1 1 1 1 1 1 1 1 2 2 2 3 3 4 4 4 4 4 4 4
4 5 6 6 6 5 4 4 4 3 3 3 3 3 1 1 3 2 1 1 0 1 1 1 1 1 2 2 2 2 2 2 3 3 3 3 3 2
3 3 4 6 5 4 3 2 1 0 1 2 2 2 2 1 1 1 2 2 1 2 1 2 1 1 1 2 2 2 2 2 2 2 2 3 3 3
2 2 3 5 4 4 2 2 2 2 2 2 2 2 2 2 2 2 2 3 4 4 2 3 2 2 2 2 3 2 2 2 2 2 2 3 3 4
1 3 4 4 4 4 4 4 3 2 2 2 2 2 2 3 2 2 1 1 2 3 4 4 4 3 2 3 2 2 3 2 2 2 3 3 2 2
3 3 5 6 5 4 3 3 3 2 2 1 1 2 2 2 2 2 2 2 2 2 0 2 4 4 3 3 3 3 3 3 2 2 3 3 3 3
2 3 3 3 4 4 3 3 2 2 2 1 1 2 2 2 2 2 1 1 1 2 3 2 1 3 5 3 3 4 3 3 3 2 2 3 4 3
3 3 3 3 3 3 3 3 2 2 1 1 1 1 2 2 2 2 1 1 1 2 2 2 2 2 1 3 6 5 3 3 2 2 2 3 4 3
2 2 1 2 2 2 2 2 2 2 1 1 1 1 2 2 2 2 2 1 2 2 2 2 2 1 2 4 3 5 4 3 2 2 3 3 4 4
1 1 1 1 2 2 2 1 1 1 1 1 1 1 2 1 2 2 2 2 2 2 3 2 2 2 2 3 4 4 5 5 3 3 2 2 4 6
1 1 2 2 2 2 2 1 1 1 1 1 1 2 2 1 2 2 2 2 2 2 3 4 3 3 3 2 3 4 3 5 7 4 3 3 3 3
2 2 2 2 2 2 2 1 1 1 2 1 2 2 2 1 2 3 3 2 2 3 4 4 4 2 2 3 3 4 4 4 4 9 10 7 4 3
3 3 3 2 2 2 2 2 2 2 2 2 2 2 2 2 2 2 3 3 3 4 4 4 3 2 2 2 3 4 5 5 3 3 3 6 12 14
Wind_Direction
64 68 68 63 79 95 120 143 146 148 157 175 163 149 127 141 154 120 112 107 115 130 132 124 111 99 93 84 76 65 54 44 37 32 29 27 24 21
58 66 63 59 66 77 96 90 100 129 133 140 126 109 135 125 110 113 152 216 210 182 169 164 160 149 140 122 95 73 58 42 31 26 23 23 22 18
54 63 59 61 71 69 76 81 81 96 116 101 72 78 84 87 54 45 61 189 216 215 199 192 190 187 187 181 173 143 55 31 19 16 18 21 19 15
52 57 51 59 63 66 74 78 81 87 121 120 90 63 57 67 69 61 37 45 277 231 199 193 198 201 199 201 212 225 247 304 337 0 11 11 10 7
56 59 53 63 62 61 68 75 76 81 92 114 102 74 60 51 60 49 42 19 358 76 138 177 201 205 206 216 229 238 238 248 272 310 342 355 358 359
55 56 55 64 71 73 75 78 85 86 91 101 101 83 67 47 64 52 37 18 14 26 38 46 86 179 216 227 233 239 241 243 245 251 268 285 312 332
52 50 54 61 64 70 84 89 94 94 95 98 95 82 58 52 54 23 46 3 19 25 12 16 17 340 263 241 238 241 248 247 244 245 252 259 266 285
54 46 50 52 57 63 72 80 92 107 109 101 98 103 79 71 67 63 65 36 11 25 5 339 348 288 278 265 252 252 253 252 250 248 250 256 260 266
50 46 50 49 54 66 66 64 60 68 101 127 131 150 168 179 149 106 105 88 288 326 345 313 336 292 283 276 269 264 258 256 256 255 254 255 258 262
47 47 54 42 48 65 71 64 55 47 57 101 144 177 200 189 179 147 126 137 283 271 228 268 324 301 310 299 277 267 270 268 266 264 261 260 261 266
41 40 47 49 46 66 76 70 56 37 44 59 118 197 221 210 178 151 138 91 13 320 190 228 284 313 302 293 298 298 284 278 277 278 275 272 269 268
36 32 38 44 44 61 81 81 60 22 14 27 38 35 38 83 176 189 183 163 215 276 184 200 245 298 299 288 292 298 298 285 289 287 290 292 279 257
40 22 12 22 39 55 79 89 94 25 29 35 33 29 34 47 85 205 211 206 215 245 196 189 227 226 253 290 296 287 287 288 294 285 286 296 281 239
46 2 346 8 35 46 58 62 74 89 81 56 43 24 12 5 345 308 244 231 241 255 239 204 231 215 224 265 282 291 291 279 266 276 292 298 278 246
14 356 9 30 43 43 46 55 68 74 73 61 36 358 329 317 316 324 342 278 261 249 231 210 211 212 217 244 268 278 296 291 261 273 286 285 276 265
18 15 31 43 48 40 35 41 48 55 70 59 3 328 326 340 4 4 359 357 352 346 3 204 213 208 221 231 239 262 263 275 287 284 285 280 261 242
18 27 28 24 23 21 21 26 35 44 45 23 7 359 354 356 358 358 357 359 352 328 326 337 265 234 236 240 252 259 266 268 264 273 276 284 275 255
61 42 28 23 19 8 4 6 16 24 13 357 1 357 347 344 350 1 1 348 329 309 310 319 329 327 282 235 220 255 270 264 273 258 248 268 280 272
63 36 15 1 353 350 349 350 349 351 349 353 360 355 348 347 356 359 357 345 328 315 313 312 307 314 321 317 296 213 235 277 280 269 243 238 262 280
28 346 322 313 313 319 327 331 332 345 0 0 358 351 348 347 348 346 345 334 322 315 311 304 282 270 266 290 300 295 230 239 262 272 271 255 261 272
306 294 288 289 289 291 293 294 301 318 325 322 326 330 329 326 324 323 320 319 312 307 307 307 308 294 261 253 272 281 276 228 228 245 263 271 282 288
275 277 280 276 274 276 276 271 275 288 298 293 296 302 304 299 302 308 309 307 301 292 287 293 308 296 235 258 286 295 299 303 262 234 237 240 263 283
262 267 270 270 263 258 258 258 261 276 281 282 285 289 294 294 293 292 294 297 299 299 299 301 309 300 280 274 285 290 295 304 311 308 279 239 238 254